Location: Bethera
(33.2010°N, 79.7880°W)
Time: 04:34:13
(UTC-04:00)

Daily predictions for brighter satellites

Satellite Brightness Start Highest point End
(mag) Time Altitude Azimuth Time Altitude Azimuth Time Altitude Azimuth
USA 267 3.3 00:02:21 10° NE 00:07:57 68° NE 00:07:57 68° NE
SeaSat 1 4.4 00:13:54 21° NE 00:13:54 21° NE 00:16:46 10° N
Lacrosse 5 3.7 00:17:43 25° NNE 00:17:43 25° NNE 00:19:52 10° NNE
NOSS 3-1 (C) 4.5 00:10:28 10° NNW 00:18:02 53° NE 00:18:59 51° ENE
Cosmos 2360 Rocket 4.1 00:19:08 10° NNE 00:22:52 20° NE 00:22:52 20° NE
Cosmos 1980 Rocket 3.4 00:19:14 10° NW 00:22:51 35° WNW 00:22:51 35° WNW
Cosmos 2322 Rocket 3.2 00:30:18 10° NNW 00:34:12 44° N 00:34:12 44° N
Lacrosse 5 rocket 3.9 00:37:55 10° NNW 00:40:09 21° N 00:40:09 21° N
USA 229 DEB 4.4 00:37:32 10° NW 00:43:05 46° W 00:43:05 46° W
USA 229 4.4 00:37:38 10° NW 00:43:12 46° W 00:43:12 46° W
NOSS 3-1 (A) 4.2 00:43:44 10° NNW 00:51:31 65° ENE 00:51:52 64° ENE
CZ-2C R/B 3.8 00:49:29 10° N 00:53:11 42° N 00:53:11 42° N
SL-16 R/B 4.0 01:23:00 10° NW 01:25:26 24° NW 01:25:26 24° NW
Cosmos 2227 Rocket 4.2 01:41:02 19° ENE 01:41:02 19° ENE 01:43:17 10° NE
Cosmos 2219 4.2 02:04:29 42° N 02:04:29 42° N 02:08:20 10° NNE
Cosmos 1725 Rocket 4.4 02:00:06 10° N 02:05:28 58° NE 02:05:28 58° NE
Cosmos 2360 Rocket 3.8 02:02:06 10° NNW 02:04:36 25° NW 02:04:36 25° NW
COSMOS 2428 3.6 02:05:56 10° NNW 02:09:55 46° N 02:09:55 46° N
USA 234 3.5 02:21:19 52° E 02:22:45 64° NE 02:29:12 10° NW
ATLAS 3B CENTAUR R/B 4.2 02:00:39 10° WSW 02:27:00 71° S 02:35:51 10° E
Cosmos 1140 Rocket 4.3 02:42:01 49° NNE 02:42:01 49° NNE 02:45:49 10° NNE
ATLAS 2AS CENTAUR R/B 2.9 02:34:33 10° NNW 02:42:32 79° ENE 02:43:52 63° SE
Cosmos 2333 Rocket 2.6 02:38:18 10° NNW 02:43:19 61° NNE 02:43:19 61° NNE
Cosmos 2297 Rocket 2.6 02:45:42 59° NE 02:45:42 59° NE 02:50:22 10° NNE
NOSS 3-3 (C) 4.5 02:45:49 48° NW 02:45:49 48° NW 02:51:59 10° NNE
Cosmos 2219 Rocket 2.7 02:45:04 10° NNW 02:49:22 53° NNW 02:49:22 53° NNW
Cosmos 1980 4.1 02:46:23 10° NNW 02:52:00 58° ENE 02:52:08 58° ENE
VEP-3 4.0 02:35:22 10° W 03:02:23 34° SSE 03:05:32 10° ESE
SL-16 R/B 3.8 02:58:18 19° ESE 03:02:00 35° ENE 03:07:30 10° N
Cosmos 1741 Rocket 4.3 03:02:50 65° NE 03:02:50 65° NE 03:07:26 10° NNE
NPP 3.7 03:00:29 10° NNE 03:05:22 74° NNE 03:05:22 74° NNE
CZ-3B DEB 4.3 03:03:30 47° SSW 03:08:44 78° SE 03:23:25 10° NE
Cosmos 2237 Rocket 2.2 03:04:57 10° NNW 03:10:33 78° ENE 03:10:33 78° ENE
SL-16 R/B 3.8 03:07:06 10° N 03:12:08 32° ENE 03:17:07 10° SE
Cosmos 1151 Rocket 4.4 03:08:36 10° N 03:11:08 34° NNW 03:11:08 34° NNW
ADEOS 4.3 03:13:34 10° NNE 03:18:30 42° E 03:19:06 40° ESE
CBERS-1 4.1 03:15:42 10° N 03:20:18 67° NNW 03:20:18 67° NNW
Cosmos 2227 Rocket 2.9 03:22:51 40° WNW 03:22:51 40° WNW 03:28:00 10° N
Resurs 1-4 Rocket 2.5 03:17:52 10° NNE 03:23:03 53° E 03:23:39 50° SE
Cosmos 1570 Rocket 4.5 03:17:48 10° N 03:23:06 58° ENE 03:24:21 46° ESE
ARIANE 5 R/B 2.9 03:23:02 10° NNE 03:27:59 53° E 03:28:27 51° ESE
UNK 4.2 03:34:33 49° ESE 03:35:20 56° ENE 03:39:51 10° N
ERS-1 4.4 03:32:26 10° NNE 03:37:36 85° ESE 03:38:01 75° S
Tsikada Rocket 4.3 03:36:41 41° SSE 03:38:55 66° E 03:45:16 10° NNE
COBE Rocket 3.7 03:34:58 10° NNE 03:39:38 83° E 03:39:38 83° E
OAO 3 Copernicus 4.4 03:40:30 62° SE 03:40:30 62° SE 03:44:48 10° ESE
Cosmos 1707 Rocket 4.1 03:36:40 10° N 03:40:58 53° E 03:41:37 48° ESE
CZ-2D R/B 2.0 03:39:21 10° NNE 03:44:35 86° ESE 03:45:23 65° S
OAO 3 Rocket 4.0 03:47:22 38° SE 03:47:22 38° SE 03:51:24 10° E
Cosmos 1072 Rocket 4.5 03:44:58 10° NNW 03:50:59 59° W 03:52:02 52° SW
Cosmos 1666 Rocket 3.4 03:50:56 87° SSE 03:51:00 89° E 03:55:27 10° N
BREEZE-M R/B 4.1 03:49:03 44° SSW 03:51:29 71° SE 03:56:03 10° NE
Cosmos 1513 Rocket 4.4 03:47:29 10° N 03:53:53 75° W 03:56:01 44° SSW
SL-08 R/B 4.2 03:57:02 35° WNW 03:57:02 35° WNW 04:00:46 10° NNW
Cosmos 1891 Rocket 4.4 03:50:41 10° N 03:56:59 72° W 03:59:03 44° SSW
Cosmos 1455 3.1 03:53:33 10° NNW 03:56:14 39° NW 03:56:14 39° NW
GPS 2-04 Rocket1 3.5 04:01:30 41° SE 04:01:30 41° SE 04:04:22 10° ESE
Lacrosse 4 Rocket 1.7 04:02:51 52° WNW 04:02:51 52° WNW 04:06:51 10° NNE
USA 234 4.5 04:08:35 22° W 04:08:35 22° W 04:11:26 10° WNW
Spot 4 Rocket 4.3 04:01:48 10° N 04:06:43 48° WNW 04:07:35 44° WSW
Cosmos 1805 Rocket 4.4 04:07:50 35° WNW 04:07:50 35° WNW 04:11:37 10° NNW
Cosmos 468 Rocket 4.3 04:05:40 10° N 04:10:49 66° ENE 04:15:55 10° SSE
Cosmos 1464 Rocket 4.3 04:05:17 10° NNW 04:11:02 43° W 04:12:16 38° WSW
Cosmos 2208 Rocket 4.2 04:08:00 10° NNW 04:13:01 49° WSW 04:13:46 45° SW
ADEOS Rocket 3.9 04:09:49 10° N 04:17:01 48° WNW 04:20:34 30° SW
Cosmos 1241 Rocket 4.5 04:11:17 10° NW 04:17:31 57° WSW 04:22:27 16° S
DELTA 2 R/B (1) 4.5 04:15:05 17° WNW 04:19:05 45° N 04:24:26 10° ENE
IRS-1D 4.2 04:17:07 10° N 04:22:02 39° WNW 04:23:26 33° WSW
Cosmos 1869 3.4 04:20:55 10° NNW 04:24:49 51° W 04:25:10 49° WSW
Cosmos 2333 Rocket 4.3 04:25:09 10° WNW 04:25:16 10° WNW 04:25:16 10° WNW
Cosmos 2297 Rocket 4.2 04:27:30 12° WNW 04:29:19 14° NW 04:32:12 10° NNW
Cosmos 1634 Rocket 4.2 04:24:08 10° N 04:30:18 70° E 04:36:25 10° SSE
Cosmos 1763 Rocket 4.2 04:26:23 10° N 04:31:30 54° ENE 04:36:30 10° SSE
ATLAS 2AS CENTAUR R/B 4.3 04:27:54 10° WNW 04:31:13 16° W 04:31:13 16° W
CZ-2D R/B 3.4 04:29:06 10° N 04:33:09 64° WNW 04:34:35 37° SW
NOSS 3-4 (A) 3.9 04:26:58 10° NNW 04:34:11 90° ENE 04:41:50 10° SSE
NOSS 3-4 (C) 3.9 04:27:04 10° NNW 04:34:17 89° ENE 04:41:56 10° SSE
Okean O Rocket 3.3 04:30:32 10° NE 04:34:19 29° E 04:38:04 10° SSE
Sich 1 4.1 04:34:32 26° W 04:34:58 27° WNW 04:38:41 10° NNW
Cosmos 1633 Rocket 3.9 04:34:27 30° W 04:35:06 32° W 04:39:01 10° NNW
Cosmos 1603 4.4 04:29:38 10° NNW 04:35:15 56° ENE 04:40:47 10° SE
Cosmos 1814 Rocket 4.1 04:30:03 10° NNW 04:35:25 81° ENE 04:40:46 10° SSE
Cosmos 1470 Rocket 3.4 04:33:52 34° SSW 04:35:39 70° W 04:39:57 10° N
GP-B 4.3 04:32:36 10° NNE 04:36:48 41° E 04:40:59 10° SSE
CZ-4B R/B 4.3 04:38:11 10° NNE 04:42:13 37° E 04:46:02 10° SSE
SL-16 R/B 3.3 04:43:23 24° SW 04:45:32 30° W 04:50:53 10° NW
PSLV R/B 4.4 04:44:06 10° NNE 04:48:00 54° E 04:51:26 12° S
Cosmos 332 Rocket 3.7 04:44:38 10° NNW 04:49:29 71° WSW 04:54:18 10° S
UNKNOWN OBJECT B 3.9 04:48:07 10° NNW 04:51:35 29° WNW 04:52:49 24° WSW
MOS 1 Rocket 3.9 04:46:49 10° N 04:51:51 48° WNW 04:55:15 21° SW
ATLAS 5 CENTAUR R/B 1.7 04:49:34 23° SSW 04:52:23 88° ESE 04:57:20 10° NNE
Abrixas rocket 3.3 04:51:59 23° S 04:53:25 35° SE 04:56:28 10° ENE
SL-16 R/B 3.0 04:51:17 10° NW 04:56:05 29° WSW 04:59:20 17° SSW
Cosmos 1354 Rocket 4.0 04:53:08 16° SSW 04:57:23 88° WNW 05:02:41 10° NNE
SL-24 R/B 4.0 04:55:29 10° N 04:59:06 48° WNW 05:01:08 22° SW
CZ-4B R/B 4.0 04:55:04 10° NNE 05:00:15 50° E 05:05:29 10° S
Cosmos 1315 Rocket 3.2 04:56:22 10° S 05:00:23 65° E 05:04:22 10° NNE
Resurs 1-4 Rocket 3.9 04:59:13 10° NNW 05:02:24 16° WNW 05:04:44 13° W
Atlas Centaur 2 4.4 04:59:28 12° SSW 05:05:42 27° SSE 05:12:24 10° E
ARIANE 5 R/B 4.4 05:03:51 10° NNW 05:06:35 15° WNW 05:08:48 11° W
PSLV R/B 4.0 05:03:22 10° NNE 05:07:32 61° E 05:11:40 10° S
ADEOS II 2.1 05:04:00 10° NNE 05:09:17 85° ESE 05:14:33 10° SSW
ATLAS 3B CENTAUR R/B 3.1 05:00:51 10° W 05:11:59 42° SSW 05:16:26 10° SE
Meteor 2-3 Rocket 3.7 05:07:46 10° SSW 05:13:25 78° W 05:19:11 10° N
CZ-4B DEB 4.3 05:12:24 10° NNE 05:17:52 79° ESE 05:23:20 10° S
BREEZE M DEB (TANK) 3.1 05:15:57 15° W 05:17:57 31° NW 05:20:00 10° NNE
Cosmos 2084 4.4 05:17:37 10° S 05:21:27 40° ESE 05:25:07 10° NE
Cosmos 1943 3.6 05:16:54 10° NNW 05:22:31 68° ENE 05:28:07 10° SSE
IRS-1C Rocket 4.2 05:17:44 10° NNE 05:23:02 87° ESE 05:28:19 10° SSW
Cosmos 1867 3.8 05:20:41 12° SW 05:25:34 56° WNW 05:30:57 10° NNE
Cosmos 2263 Rocket 2.2 05:20:27 10° SSW 05:25:58 66° WNW 05:31:30 10° NNE
Cosmos 2221 Rocket 4.2 05:22:04 10° N 05:26:36 63° E 05:31:02 10° SSE
Meteosat 1 Rocket2 3.3 05:23:52 12° WSW 05:27:30 41° S 05:30:57 10° ESE
Cosmos 1892 3.3 05:24:53 10° SSW 05:28:26 38° W 05:32:00 10° N
OAO 3 Rocket 3.3 05:25:13 10° W 05:30:12 85° N 05:35:08 10° ENE
Cosmos 968 Rocket 4.1 05:29:08 10° S 05:34:10 59° ESE 05:39:16 10° NNE
CZ-3 R/B 3.5 04:58:04 10° W 05:35:13 65° SSW 05:43:16 10° ESE
Meteor 2-10 Rocket 4.2 05:31:59 10° NNW 05:36:27 33° W 05:40:57 10° SSW
GPS 2-04 Rocket1 4.3 05:36:47 10° WSW 05:39:42 18° SSW 05:42:39 10° SSE
PAYLOAD B 4.4 05:36:37 10° N 05:41:59 56° WNW 05:47:20 10° SSW
Cosmos 1606 4.0 05:39:16 10° N 05:43:03 46° E 05:46:49 10° SSE
Cosmos 841 Rocket 4.1 05:39:01 10° NW 05:43:48 36° W 05:48:33 10° SSW
